星链-35875(STARLINK-35875)

导读

STARLINK-35875是美国SpaceX星链星座计划发射的卫星,于2025年12月15日发射入轨。星链项目旨在构建全球卫星互联网星座,该卫星延续星链设计,为地面用户提供低延迟、广覆盖的宽带通信服务,进一步扩充了星链星座的卫星规模与服务覆盖能力,支撑星链全球组网运营。

Basic Information
目录编号:
67111
目录名称:
STARLINK-35875
国际标识:
2025-299K
轨道中心:
EARTH
卫星名称:
星链-35875
卫星全名:
星链-35875(STARLINK-35875)
卫星状态:
在轨 (已飞行264 天)
发射日期:
2025-12-15 UTC
国别 :
美国 (US)
星等 :
--
Orbit Information
数据来源 国际轨道数据 AOE轨道数据
星历时间 2026-09-05T14:38:41+0800
6小时前
查看轨道信息
2026-09-04T22:00:00+0800
23小时前
查看轨道信息
半长轴 6861.108km 6861.233km
偏心率 0.0001175 0.000001
轨道倾角 43.000° 43.002°
近地点辐角 282.919° 189.733°
升交点赤经 234.617° 238.537°
平近点角 77.153° 311.882°
近地点 482.164km 483.089km
远地点 483.778km 483.103km
周期 94.265分钟 94.268分钟
每日圈数 15.276061 15.275644
Detailed Information
固有亮度:
5
最大亮度:
2.5
卫星平台:
Starlink V1.0
覆盖范围:
全球
运营商:
太空探索技术公司
运营商所在国:
美国
制造商(研发单位):
太空探索技术公司
制造商所在国:
美国
使用方式:
暂无
Satellite Introduction
Starlink 计划是 SpaceX 推出的全球卫星互联网项目,通过发射低轨道卫星,为全球尤其是偏远地区提供高速、低延迟的互联网服务。自 2019 年起,Starlink 已部署数千颗卫星,旨在缩小全球数字鸿沟,推动互联网普及。该项目还为军事、航空等行业提供通信支持,带来广泛经济效益。
2D Orbit Map
3D Orbit Map
Orbit Altitude Analysis Chart
Orbit Inclination Analysis Chart
Orbit Comprehensive Analysis Chart
View Comprehensive Chart
Conjunction Data List
Event ID Objects TCA Miss Dist (km) Collision Risk Probability Collision Risk Index (CRI) Action
CDM_260907-134905-917906-711121
2026-09-07T
13:49:46+0000
0.327 km
远距离
3.055529E-4 高风险 0.85
CDM_260906-211805-691106-711122
2026-09-06T
21:18:25+0000
0.467 km
远距离
1.656125E-4 高风险 0.79
CDM_260907-123005-735606-711121
2026-09-07T
12:30:49+0000
0.555 km
远距离
9.332663E-5 中风险 0.74
CDM_260903-013401-957306-711124
2026-09-03T
01:34:30+0000
0.664 km
远距离
6.382667E-5 中风险 0.71
CDM_260907-004705-713606-711121
2026-09-07T
00:47:17+0000
0.801 km
远距离
3.579413E-5 中风险 0.66
CDM_260906-112605-713606-711121
2026-09-06T
11:26:58+0000
0.804 km
远距离
3.55118E-5 中风险 0.66
CDM_260907-172305-789306-711121
2026-09-07T
17:23:20+0000
0.980 km
远距离
2.196603E-5 中风险 0.62
CDM_260907-121205-691106-711121
2026-09-07T
12:12:52+0000
1.050 km
极远距离
1.467869E-5 中风险 0.58
CDM_260907-185705-789306-711121
2026-09-07T
18:57:29+0000
1.260 km
极远距离
9.180258E-6 低风险 0.54
CDM_260907-022105-713606-711121
2026-09-07T
02:21:26+0000
1.254 km
极远距离
7.762713E-6 低风险 0.53